Location: Obersdorf
(47.4079°N, 10.2781°E)
Time: 06:08:12
(UTC+01:00)

AO-109 - Pass Details

Date: 03 December 2021
Orbit: 478 x 515 km, 60.7° (Epoch: 22 January)

Event Time Altitude Azimuth Distance (km) Brightness Sun altitude
Exits shadow 06:03:14 32° 326° (NW) 847 ? -17.0°
Maximum altitude 06:04:49 72° 43° (NE) 509 ? -16.7°
Drops below altitude 10° 06:08:30 10° 129° (SE) 1,650 ? -16.1°
Sets 06:10:38 0° 131° (SE) 2,527 ? -15.8°
